Flag for U.S.A. Weather past 2 weeks in Seattle, Washington, U.S.A.

Now
43 °F

Overcast.


Feels Like: 43 °F
Forecast: 32 / 40 °F
Wind: No wind

Location: Seattle Boeing Field

Current Time: Dec 28, 2014 at 7:13:04 PM

Latest Report: Dec 28, 2014 at 6:53 PM


Visibility: 10 mi

Pressure: 30.16 "Hg

Humidity: 76%

Dew point: 36 °F

Location of SeattleLocation

Historic Weather in Seattle — Graph

°F

Seattle temperature yesterday

Maximum temperature yesterday: 52 °F (at 1:53 PM)
Minimum temperature yesterday: 42 °F (at 2:53 AM)
Average temperature yesterday: 46 °F

Past Weeks' High & Low Weather Summary

 TemperatureHumidityPressure
High58 °F (Dec 14, 2:53 PM)96% (Dec 23, 4:53 PM)30.40 "Hg (Dec 23, 4:53 PM)
Low38 °F (Dec 14, 7:53 AM)27% (Dec 14, 3:53 PM)29.45 "Hg (Dec 20, 6:53 PM)
Average48 °F73%30.02 "Hg
* Reported Dec 13 5:53 PM — Dec 28 5:53 PM, Seattle, Weather by CustomWeather, © 2014

Note: Actual official high and low records may vary slightly from our data, if they occured in-between our weather recording intervals... More about our weather records

Advertising

Seattle weather history for previous 24 hours

 ConditionsComfort  
Time TempWeatherWind HumidityBarometerVisibility
5:53 PM
Dec 28
43 °FMostly cloudy.5 mph76%30.16 "Hg10 mi
4:53 PM42 °FLight rain. Overcast.6 mph79%30.17 "Hg10 mi
3:53 PM44 °FLight rain. Mostly cloudy.3 mph73%30.18 "Hg10 mi
2:53 PM46 °FMostly cloudy.6 mph77%30.19 "Hg10 mi
1:53 PM46 °FCloudy.3 mph77%30.19 "Hg10 mi
12:53 PM45 °FMostly cloudy.3 mph80%30.20 "Hg10 mi
11:53 AM44 °FMostly cloudy.6 mph82%30.22 "Hg10 mi
10:57 AM45 °FMostly cloudy.6 mph81%30.23 "Hg10 mi
10:00 AM43 °FMostly cloudy.8 mph81%30.22 "Hg10 mi
8:53 AM42 °FPartly sunny.6 mph85%30.20 "Hg10 mi
7:53 AM42 °FMostly cloudy.No wind82%30.19 "Hg10 mi
6:53 AM43 °FOvercast.No wind79%30.18 "Hg10 mi
5:53 AM43 °FLight rain. Overcast.No wind79%30.17 "Hg10 mi
4:53 AM44 °FLight rain. Overcast.5 mph79%30.15 "Hg10 mi
3:53 AM44 °FLight rain. Overcast.7 mph79%30.14 "Hg8 mi
2:53 AM46 °FMostly cloudy.3 mph77%30.12 "Hg10 mi
1:53 AM45 °FOvercast.5 mph80%30.10 "Hg10 mi
12:53 AM46 °FMostly cloudy.7 mph77%30.09 "Hg10 mi
11:53 PM
Dec 27
46 °FPassing clouds.6 mph73%30.08 "Hg10 mi
10:53 PM47 °FPassing clouds.6 mph74%30.07 "Hg10 mi
9:53 PM46 °FPartly cloudy.6 mph73%30.06 "Hg10 mi
8:53 PM47 °FPassing clouds.No wind71%30.06 "Hg10 mi
7:53 PM46 °FPassing clouds.7 mph73%30.05 "Hg10 mi
Weather by CustomWeather, © 2014

See weather overviewHow to use our weather pages